DW5065 Weather Reports


Display with metric or nautical units.
time (UTC)temp
F
wind
direction
speed
MPH
gust
MPH
rain 1hr
in
rain 24hr
in
rain mn
in
humidity
%
barometer
mb
20190117085807 7 51 0.0 0.0 0.00 0.02 0.00 78 1025.9
20190117085307 7 51 0.0 0.0 0.00 0.02 0.00 78 1025.8
20190117084807 7 51 0.0 0.0 0.00 0.02 0.00 78 1025.8
20190117084307 8 51 0.0 0.0 0.00 0.02 0.00 78 1025.8
20190117083806 8 51 0.0 0.0 0.00 0.02 0.00 78 1025.8
20190117082806 8 51 0.0 0.0 0.00 0.02 0.00 77 1025.6
20190117082307 9 51 0.0 0.0 0.00 0.02 0.00 77 1025.6
20190117081807 9 51 0.0 0.0 0.00 0.02 0.00 76 1025.5
20190117081307 9 51 0.0 0.0 0.00 0.02 0.00 76 1025.4
20190117080806 9 51 0.0 0.0 0.00 0.02 0.00 75 1025.4
20190117080307 10 51 0.0 0.0 0.00 0.02 0.00 75 1025.4
20190117075806 10 51 0.0 0.0 0.00 0.02 0.00 74 1025.4
20190117075307 10 51 0.0 0.0 0.00 0.02 0.00 74 1025.3
20190117074807 10 51 0.0 0.0 0.00 0.02 0.00 73 1025.3
20190117074307 11 51 0.0 0.0 0.00 0.02 0.00 72 1025.1
20190117073807 11 51 0.0 0.0 0.00 0.02 0.00 72 1025.1
20190117073307 11 51 0.0 0.0 0.00 0.02 0.00 70 1025.1
20190117072807 11 51 0.0 0.0 0.00 0.02 0.00 70 1025.0
20190117072307 12 51 0.0 0.0 0.00 0.02 0.00 70 1024.9
20190117071807 12 51 0.0 0.0 0.00 0.02 0.00 70 1024.7
20190117071306 12 51 0.0 0.0 0.00 0.02 0.00 70 1024.7
20190117070807 12 51 0.0 0.0 0.00 0.02 0.00 69 1024.5
20190117070307 12 51 0.0 0.0 0.00 0.02 0.00 67 1024.4
20190117065806 12 51 0.0 0.0 0.00 0.02 0.00 67 1024.2
20190117065306 13 51 0.0 0.0 0.00 0.02 0.00 67 1024.0
20190117064807 13 51 0.0 0.0 0.00 0.02 0.00 66 1024.0
20190117064307 13 51 0.0 0.0 0.00 0.02 0.00 66 1023.9
20190117063807 13 51 0.0 0.0 0.00 0.02 0.00 66 1023.8
20190117063306 14 51 0.0 3.0 0.00 0.02 0.00 65 1023.7
20190117062807 14 51 0.0 3.0 0.00 0.02 0.00 65 1023.6
20190117062307 14 86 0.0 1.0 0.00 0.02 0.00 65 1023.5
20190117061807 14 86 0.0 2.0 0.00 0.02 0.00 64 1023.3
20190117061307 14 86 0.0 5.0 0.00 0.02 0.00 64 1023.2
20190117060807 15 91 1.0 5.0 0.00 0.02 0.00 64 1023.1
20190117060306 15 90 2.0 4.0 0.00 0.02 0.00 64 1023.1
20190117055806 15 71 0.0 3.0 0.00 0.02 0.00 64 1022.9
20190117055307 15 71 2.0 4.0 0.00 0.02 0.00 64 1022.8
20190117054807 15 355 0.0 4.0 0.00 0.02 0.00 63 1022.7
20190117054307 16 355 2.0 5.0 0.00 0.02 0.00 63 1022.6
20190117053807 16 343 0.0 5.0 0.00 0.02 0.00 63 1022.6
20190117053306 16 336 4.0 5.0 0.00 0.02 0.00 63 1022.5
20190117052807 16 336 3.0 5.0 0.00 0.02 0.00 62 1022.4
20190117052307 17 22 0.0 3.0 0.00 0.02 0.00 62 1022.3
20190117051806 17 360 1.0 4.0 0.00 0.02 0.00 62 1022.3
20190117051306 17 347 2.0 6.0 0.00 0.02 0.00 61 1022.2
20190117050807 17 54 2.0 6.0 0.00 0.02 0.00 61 1022.1
20190117050307 18 321 6.0 6.0 0.00 0.02 0.00 60 1022.2
20190117045807 18 38 1.0 4.0 0.00 0.02 0.00 59 1022.2
20190117045307 18 333 0.0 4.0 0.00 0.02 0.02 57 1022.0
20190117044807 19 68 3.0 5.0 0.00 0.02 0.02 55 1021.9
20190117044307 19 97 1.0 5.0 0.00 0.02 0.02 53 1021.7
20190117043807 19 44 1.0 4.0 0.00 0.02 0.02 53 1021.6
20190117043306 20 36 1.0 4.0 0.00 0.02 0.02 53 1021.5
20190117042807 20 24 1.0 3.0 0.00 0.02 0.02 54 1021.4
20190117042306 20 57 3.0 3.0 0.00 0.02 0.02 54 1021.4
20190117041807 20 355 2.0 4.0 0.00 0.02 0.02 54 1021.3
20190117041307 21 360 3.0 4.0 0.00 0.02 0.02 55 1021.3
20190117040807 21 339 2.0 5.0 0.00 0.02 0.02 55 1021.2
20190117040307 21 346 1.0 11.0 0.00 0.02 0.02 55 1021.1
20190117035807 21 313 2.0 11.0 0.00 0.02 0.02 54 1021.0
20190117035307 22 340 6.0 7.0 0.00 0.02 0.02 56 1020.8
20190117034807 22 5 6.0 6.0 0.00 0.02 0.02 57 1020.7
20190117034307 22 307 2.0 6.0 0.00 0.02 0.02 57 1020.6
20190117033807 22 9 3.0 6.0 0.00 0.02 0.02 57 1020.5
20190117033308 23 323 0.0 5.0 0.00 0.02 0.02 59 1020.4
20190117032807 23 321 5.0 5.0 0.00 0.02 0.02 58 1020.4
20190117031806 23 346 2.0 7.0 0.00 0.02 0.02 59 1020.2
20190117031307 24 290 3.0 4.0 0.00 0.02 0.02 59 1020.1
20190117030807 24 330 3.0 6.0 0.00 0.02 0.02 60 1020.0
20190117030307 24 307 3.0 8.0 0.00 0.02 0.02 59 1019.8
20190117025807 24 293 1.0 8.0 0.00 0.02 0.02 59 1019.6
20190117025307 25 342 5.0 6.0 0.00 0.02 0.02 60 1019.6
20190117024807 25 5 1.0 6.0 0.00 0.02 0.02 60 1019.4
20190117023807 26 285 4.0 6.0 0.00 0.02 0.02 61 1019.1
20190117023307 26 325 4.0 9.0 0.00 0.02 0.02 61 1019.0
20190117022807 26 295 4.0 9.0 0.00 0.02 0.02 60 1018.8
20190117022307 26 318 4.0 9.0 0.00 0.02 0.02 60 1018.7
20190117021807 27 336 2.0 9.0 0.00 0.02 0.02 61 1018.6
20190117021307 27 341 6.0 8.0 0.00 0.02 0.02 61 1018.4
20190117020807 27 327 2.0 7.0 0.00 0.02 0.02 63 1018.2
20190117020307 28 318 2.0 8.0 0.00 0.02 0.02 64 1018.2
20190117015807 28 275 2.0 8.0 0.00 0.02 0.02 64 1018.0
20190117015307 28 12 3.0 5.0 0.00 0.02 0.02 67 1017.9
20190117014807 28 313 2.0 5.0 0.00 0.02 0.02 67 1017.8
20190117014307 28 318 5.0 6.0 0.00 0.02 0.02 68 1017.6
20190117013807 28 334 2.0 8.0 0.00 0.02 0.02 69 1017.5
20190117013307 29 336 1.0 8.0 0.00 0.02 0.02 69 1017.3
20190117012807 29 157 4.0 6.0 0.00 0.02 0.02 72 1017.0
20190117012307 29 338 3.0 8.0 0.00 0.02 0.02 74 1016.9
20190117011807 30 350 2.0 8.0 0.00 0.02 0.02 75 1016.7
20190117011307 30 328 7.0 8.0 0.00 0.02 0.02 75 1016.6
20190117010807 30 313 4.0 8.0 0.00 0.02 0.02 74 1016.5
20190117010307 30 13 4.0 8.0 0.00 0.02 0.02 73 1016.3
20190117005807 30 342 3.0 10.0 0.00 0.02 0.02 71 1016.1
20190117005307 31 329 5.0 10.0 0.00 0.02 0.02 67 1015.8
20190117004807 31 319 5.0 8.0 0.00 0.02 0.02 67 1015.8
20190117004307 31 283 1.0 8.0 0.00 0.02 0.02 67 1015.5
20190117003807 31 334 2.0 5.0 0.00 0.02 0.02 68 1015.4
20190117003307 31 292 2.0 8.0 0.00 0.02 0.02 67 1015.3
20190117002807 31 281 2.0 8.0 0.00 0.02 0.02 67 1015.1
20190117002307 31 319 6.0 8.0 0.00 0.02 0.02 69 1014.8
20190117001807 31 298 3.0 7.0 0.00 0.02 0.02 70 1014.9
20190117001307 31 295 3.0 7.0 0.00 0.02 0.02 72 1014.7
20190117000807 32 285 3.0 6.0 0.00 0.02 0.02 74 1014.8
20190117000307 32 313 2.0 6.0 0.00 0.02 0.02 75 1014.6
20190116235807 32 304 3.0 6.0 0.00 0.02 0.02 77 1014.4
20190116235307 32 297 2.0 6.0 0.00 0.02 0.02 76 1014.3
20190116234807 32 304 2.0 3.0 0.00 0.02 0.02 75 1014.1
20190116234307 32 304 2.0 4.0 0.00 0.02 0.02 75 1013.9
20190116233807 32 312 2.0 4.0 0.00 0.02 0.02 75 1013.8
20190116233307 32 279 1.0 3.0 0.00 0.02 0.02 77 1013.7
20190116232807 32 298 1.0 3.0 0.00 0.02 0.02 77 1013.6
20190116232307 32 298 2.0 3.0 0.00 0.02 0.02 77 1013.6
20190116231807 32 302 2.0 5.0 0.00 0.02 0.02 77 1013.6
20190116231307 32 298 3.0 6.0 0.00 0.02 0.02 76 1013.4
20190116230807 32 307 3.0 6.0 0.00 0.02 0.02 76 1013.3
20190116230307 32 309 3.0 5.0 0.00 0.02 0.02 77 1013.2
20190116225807 33 324 3.0 5.0 0.00 0.02 0.02 76 1013.1
20190116225307 32 276 2.0 5.0 0.00 0.02 0.02 77 1013.1
20190116224807 32 315 1.0 4.0 0.00 0.02 0.02 78 1012.9
20190116224307 32 287 1.0 4.0 0.00 0.02 0.02 78 1012.8
20190116223807 32 294 2.0 4.0 0.00 0.02 0.02 78 1012.7
20190116223307 32 307 0.0 3.0 0.00 0.02 0.02 78 1012.5
20190116222807 32 269 1.0 4.0 0.00 0.02 0.02 78 1012.4
20190116222307 32 269 1.0 6.0 0.00 0.02 0.02 78 1012.4
20190116221807 32 281 3.0 6.0 0.00 0.02 0.02 79 1012.3
20190116221307 32 218 1.0 3.0 0.00 0.02 0.02 81 1012.2
20190116220807 33 271 2.0 5.0 0.00 0.02 0.02 81 1012.2
20190116220307 33 298 3.0 5.0 0.00 0.02 0.02 80 1012.1
20190116215807 34 266 2.0 7.0 0.00 0.02 0.02 79 1011.9
20190116215307 34 278 4.0 7.0 0.00 0.02 0.02 77 1011.9
20190116214807 34 304 6.0 7.0 0.00 0.02 0.02 75 1011.6
20190116214307 34 289 3.0 6.0 0.00 0.02 0.02 74 1011.4
20190116213807 34 267 2.0 6.0 0.00 0.02 0.02 74 1011.3
20190116213307 34 254 5.0 5.0 0.00 0.02 0.02 75 1011.2
20190116212807 33 232 3.0 4.0 0.00 0.02 0.02 77 1011.2
20190116212307 33 309 0.0 4.0 0.00 0.02 0.02 77 1011.3
20190116211807 34 234 1.0 3.0 0.00 0.02 0.02 75 1011.1
20190116211307 34 266 0.0 2.0 0.00 0.02 0.02 75 1011.0
20190116210807 34 267 0.0 2.0 0.00 0.02 0.02 76 1010.9
20190116210307 34 267 0.0 2.0 0.00 0.02 0.02 77 1011.0
20190116205807 34 266 0.0 3.0 0.00 0.02 0.02 76 1010.9
20190116205307 34 267 0.0 3.0 0.00 0.02 0.02 77 1010.9
20190116204807 34 240 0.0 3.0 0.01 0.02 0.02 76 1010.9
20190116204307 34 248 0.0 6.0 0.01 0.02 0.02 76 1010.9
20190116203807 34 244 2.0 6.0 0.01 0.02 0.02 75 1010.9
20190116203307 34 233 1.0 4.0 0.01 0.02 0.02 74 1010.9
20190116202807 34 215 1.0 4.0 0.01 0.02 0.02 73 1010.8
20190116202307 34 264 1.0 5.0 0.01 0.02 0.02 74 1010.9
20190116201807 34 282 1.0 5.0 0.01 0.02 0.02 73 1010.8
20190116201307 34 312 4.0 4.0 0.01 0.02 0.02 74 1010.7
20190116200807 34 277 0.0 5.0 0.01 0.02 0.02 74 1010.7
20190116200307 35 211 0.0 5.0 0.01 0.02 0.02 71 1010.7
20190116195807 35 248 1.0 5.0 0.02 0.02 0.02 72 1010.6
20190116195307 35 238 1.0 4.0 0.02 0.03 0.02 73 1010.6
20190116194807 35 259 2.0 6.0 0.01 0.02 0.01 73 1010.5
20190116194307 35 263 2.0 6.0 0.01 0.02 0.01 71 1010.6
20190116193807 35 259 2.0 5.0 0.01 0.02 0.01 73 1010.5
20190116193307 35 246 2.0 4.0 0.01 0.02 0.01 74 1010.6
20190116192807 35 263 0.0 3.0 0.01 0.02 0.01 72 1010.4
20190116192307 35 259 1.0 5.0 0.01 0.02 0.01 74 1010.4
20190116191808 35 263 0.0 6.0 0.01 0.02 0.01 72 1010.4
20190116191307 35 277 3.0 6.0 0.01 0.02 0.01 71 1010.4
20190116190808 35 283 1.0 5.0 0.01 0.02 0.01 71 1010.3
20190116190307 35 240 2.0 4.0 0.01 0.02 0.01 73 1010.3
20190116185807 35 248 3.0 6.0 0.00 0.01 0.00 72 1010.2
20190116185307 35 245 3.0 6.0 0.00 0.01 0.00 71 1010.3
20190116184807 35 254 1.0 4.0 0.00 0.01 0.00 72 1010.2
20190116184308 35 257 1.0 5.0 0.00 0.01 0.00 72 1010.1
20190116183807 36 261 0.0 5.0 0.00 0.01 0.00 71 1010.2
20190116183308 36 276 2.0 4.0 0.00 0.01 0.00 71 1010.2
20190116182807 36 261 1.0 4.0 0.00 0.01 0.00 72 1010.2
20190116182308 36 223 1.0 5.0 0.00 0.01 0.00 69 1010.2
20190116181808 37 261 2.0 5.0 0.00 0.01 0.00 67 1010.3
20190116181307 37 280 0.0 4.0 0.00 0.01 0.00 68 1010.3
20190116180808 37 266 1.0 4.0 0.00 0.01 0.00 68 1010.2
20190116180308 37 255 4.0 4.0 0.00 0.01 0.00 69 1010.3
20190116175808 36 261 0.0 6.0 0.00 0.01 0.00 68 1010.2
20190116175307 35 224 2.0 6.0 0.00 0.01 0.00 72 1010.2
20190116174807 34 128 2.0 4.0 0.00 0.01 0.00 76 1010.5
20190116174308 34 121 2.0 8.0 0.00 0.01 0.00 72 1010.6
20190116173807 33 120 1.0 8.0 0.00 0.01 0.00 74 1010.7
20190116173307 33 138 7.0 7.0 0.00 0.01 0.00 75 1010.7
20190116172807 33 261 0.0 9.0 0.00 0.01 0.00 74 1010.8
20190116172308 33 247 0.0 9.0 0.00 0.01 0.00 73 1010.8
20190116171808 33 87 0.0 2.0 0.00 0.01 0.00 75 1010.9
20190116171307 33 302 0.0 4.0 0.00 0.01 0.00 74 1010.9
20190116170807 33 292 0.0 4.0 0.00 0.01 0.00 74 1010.9
20190116170308 32 200 4.0 5.0 0.00 0.01 0.00 76 1011.0
20190116165807 32 138 0.0 8.0 0.00 0.01 0.00 75 1011.1
20190116165307 32 213 2.0 8.0 0.00 0.01 0.00 75 1011.2
20190116164807 32 296 1.0 4.0 0.00 0.01 0.00 77 1011.3
20190116164307 32 313 2.0 4.0 0.00 0.01 0.00 77 1011.4
20190116163807 32 225 0.0 4.0 0.00 0.01 0.00 77 1011.4
20190116163307 32 123 0.0 4.0 0.00 0.01 0.00 78 1011.5
20190116162807 32 122 4.0 4.0 0.00 0.01 0.00 77 1011.4
20190116162308 32 209 0.0 3.0 0.00 0.01 0.00 78 1011.5
20190116161808 32 209 0.0 2.0 0.00 0.01 0.00 78 1011.5
20190116161308 32 209 0.0 2.0 0.00 0.01 0.00 79 1011.5
20190116160809 32 210 0.0 6.0 0.00 0.01 0.00 77 1011.6
20190116160308 32 210 2.0 6.0 0.00 0.01 0.00 78 1011.6
20190116155808 32 207 0.0 5.0 0.00 0.01 0.00 78 1011.5
20190116155307 32 190 0.0 5.0 0.00 0.01 0.00 78 1011.6
20190116154808 31 192 0.0 5.0 0.00 0.01 0.00 77 1011.7
20190116154308 31 212 0.0 2.0 0.00 0.01 0.00 77 1011.8
20190116153808 31 213 0.0 2.0 0.00 0.01 0.00 78 1011.8
20190116153307 31 200 0.0 2.0 0.00 0.01 0.00 78 1011.9
20190116152808 31 200 0.0 3.0 0.00 0.01 0.00 78 1011.9
20190116152307 31 200 0.0 4.0 0.00 0.01 0.00 79 1011.9
20190116151807 31 221 2.0 4.0 0.00 0.01 0.00 79 1012.0
20190116151307 31 207 0.0 4.0 0.00 0.01 0.00 78 1012.0
20190116150807 30 195 0.0 4.0 0.00 0.01 0.00 81 1012.0
20190116150307 30 225 0.0 4.0 0.00 0.01 0.00 82 1012.0
20190116145807 30 152 0.0 0.0 0.00 0.01 0.00 82 1012.0
20190116145307 29 150 0.0 0.0 0.00 0.01 0.00 85 1012.1
20190116144808 29 189 0.0 1.0 0.00 0.01 0.00 86 1012.1
20190116144308 28 189 0.0 1.0 0.00 0.01 0.00 86 1012.2
20190116143808 28 189 1.0 1.0 0.00 0.01 0.00 85 1012.2
20190116143308 28 281 0.0 0.0 0.00 0.01 0.00 86 1012.3
20190116142808 28 281 0.0 0.0 0.00 0.01 0.00 86 1012.2
20190116142308 28 281 0.0 1.0 0.00 0.01 0.00 87 1012.2
20190116141808 28 281 0.0 2.0 0.00 0.01 0.00 87 1012.2
20190116141308 27 280 0.0 3.0 0.00 0.01 0.00 86 1012.1
20190116140808 27 281 1.0 6.0 0.00 0.01 0.00 86 1012.0
20190116140308 27 259 1.0 6.0 0.00 0.01 0.00 86 1012.0
20190116135808 27 111 1.0 5.0 0.00 0.01 0.00 87 1011.9
20190116135308 27 239 2.0 5.0 0.00 0.01 0.00 87 1011.8
20190116134808 27 278 2.0 5.0 0.00 0.01 0.00 87 1011.9
20190116134308 26 260 3.0 4.0 0.00 0.01 0.00 87 1011.9
20190116133808 26 225 0.0 2.0 0.00 0.01 0.00 87 1012.0
20190116133308 26 268 0.0 0.0 0.00 0.01 0.00 87 1012.1
20190116132807 26 268 0.0 4.0 0.00 0.01 0.00 87 1012.0
20190116132308 26 268 0.0 4.0 0.00 0.01 0.00 87 1012.0
20190116131808 26 225 1.0 4.0 0.00 0.01 0.00 87 1011.9
20190116131308 26 225 1.0 5.0 0.00 0.01 0.00 87 1012.0
20190116130808 26 237 1.0 5.0 0.00 0.01 0.00 87 1011.9
20190116130308 26 222 2.0 4.0 0.00 0.01 0.00 87 1011.9
20190116125808 26 233 0.0 4.0 0.00 0.01 0.00 87 1012.0
20190116125308 26 261 0.0 5.0 0.00 0.01 0.00 87 1012.0
20190116124808 26 232 1.0 6.0 0.00 0.01 0.00 87 1012.0
20190116124308 26 271 2.0 6.0 0.00 0.01 0.00 87 1012.0
20190116123808 26 251 1.0 5.0 0.00 0.01 0.00 88 1012.0
20190116123308 26 249 2.0 9.0 0.00 0.01 0.00 88 1012.0
20190116122808 26 249 2.0 9.0 0.00 0.01 0.00 88 1012.0
20190116122308 26 229 3.0 8.0 0.00 0.01 0.00 88 1012.1
20190116121808 26 213 3.0 5.0 0.00 0.01 0.00 89 1012.1
20190116121308 26 240 3.0 5.0 0.00 0.01 0.00 89 1012.1
20190116120808 26 287 3.0 4.0 0.00 0.01 0.00 89 1012.1
20190116120308 26 167 0.0 4.0 0.00 0.01 0.00 89 1012.1
20190116115808 26 262 0.0 4.0 0.00 0.01 0.00 89 1012.3
20190116115308 26 229 0.0 3.0 0.00 0.01 0.00 89 1012.4
20190116114808 26 232 0.0 5.0 0.00 0.01 0.00 89 1012.3
20190116114308 26 234 1.0 5.0 0.00 0.01 0.00 89 1012.4
20190116113808 26 243 1.0 2.0 0.00 0.01 0.00 89 1012.4
20190116113308 26 227 0.0 3.0 0.00 0.01 0.00 89 1012.3
20190116112808 26 227 0.0 3.0 0.00 0.01 0.00 89 1012.3
20190116112308 26 236 0.0 3.0 0.00 0.01 0.00 89 1012.4
20190116111808 26 231 0.0 4.0 0.00 0.01 0.00 89 1012.4
20190116111308 26 271 1.0 4.0 0.00 0.01 0.00 89 1012.5
20190116110808 26 264 0.0 3.0 0.00 0.01 0.00 89 1012.6
20190116110308 26 99 0.0 3.0 0.00 0.01 0.00 89 1012.7
20190116105808 26 234 0.0 5.0 0.00 0.01 0.00 89 1012.7
20190116105308 26 282 0.0 5.0 0.00 0.01 0.00 89 1012.8
20190116104808 26 277 1.0 4.0 0.00 0.01 0.00 89 1012.8
20190116104308 26 218 0.0 4.0 0.00 0.01 0.00 89 1012.8
20190116103808 26 271 2.0 4.0 0.00 0.01 0.00 89 1012.8
20190116103308 26 227 2.0 5.0 0.00 0.01 0.00 89 1012.8
20190116102808 26 267 3.0 5.0 0.00 0.01 0.00 89 1012.8
20190116102308 26 250 0.0 5.0 0.00 0.01 0.00 89 1012.8
20190116101808 26 225 0.0 5.0 0.00 0.01 0.00 90 1012.8
20190116101308 25 234 3.0 4.0 0.00 0.01 0.00 90 1012.7
20190116100808 25 264 1.0 4.0 0.00 0.01 0.00 90 1012.8
20190116100308 25 248 0.0 1.0 0.00 0.01 0.00 90 1013.0
20190116095808 25 248 0.0 0.0 0.00 0.01 0.00 90 1013.1
20190116095308 25 248 0.0 1.0 0.00 0.01 0.00 90 1013.1
20190116094808 25 248 0.0 2.0 0.00 0.01 0.00 90 1013.0
20190116094308 25 248 0.0 2.0 0.00 0.01 0.00 90 1012.9
20190116093808 25 248 0.0 0.0 0.00 0.01 0.00 90 1013.0
20190116093308 25 247 0.0 0.0 0.00 0.01 0.00 90 1013.0
20190116092808 25 247 0.0 0.0 0.00 0.01 0.00 90 1013.0
20190116092308 25 247 0.0 0.0 0.00 0.01 0.00 90 1013.0
20190116091808 25 247 0.0 0.0 0.00 0.01 0.00 90 1013.0
20190116091308 25 247 0.0 0.0 0.00 0.01 0.00 90 1013.0
20190116090808 25 247 0.0 0.0 0.00 0.01 0.00 90 1013.0
20190116090308 25 247 0.0 0.0 0.00 0.01 0.00 90 1013.0